Terminal Aerodrome Forecast
Issued by NWS Boston, MA

Home | Current Version | Previous Version | Text Only | Print | Product List | Glossary On
Versions: 1 2 3 4 5 6 7 8 9 10 11 12 13 14 15 16 17 18 19 20 21
000
FTUS41 KBOX 231444 AAA
TAFORH
TAF AMD
KORH 231444Z 2315/2412 01021G35KT 3SM RA BR BKN007 OVC012
     FM231530 01020G34KT 6SM -SHRA BR OVC007
     FM231900 01013G27KT 6SM BR OVC010
     FM240700 34011G19KT 3SM BR OVC010=

USA.gov is the U.S. government's official web portal to all federal, state and local government web resources and services.